Date String (YYYY-MM-DD hh:mm:ss) UTC,Instrument flags,absolute air pressure of the measurement (hPa),sample flow rate (lpm),inlet stack bypass flow (lpm),air temperature of the measurement (°C),ambient temperature measured by the external sensor (°C),aerosol sample conditioner tube jacket temperature (°C),OPC LED temperature (°C),internal box temperature (°C),relative humidity of the measurement (%),span deviation,mass concentration of particles derived from Lorenz-Mie calculation of OPC scattering (μg/m³),mass concentration of particles derived from Lorenz-Mie calculation of OPC scattering (μg/m³),mass concentration of particles derived from Lorenz-Mie calculation of OPC scattering (μg/m³)
DateTimeUTC,F1_M11,P_M11,Q1_M11,Q2_M11,T1_M11,T2_M11,T3_M11,T4_M11,T5_M11,U1_M11,ZSPAN_M11,X0_M11,X2_M11,X1_M11
2024-06-03 03:00:00,SystemResetWarning,0823.8,5.01,000.00,030.2,029.7,000.0,038.2,032.0,015.3,0000.0,0012.55,0004.07,0002.86
2024-06-03 03:01:00,SystemResetWarning,0823.8,5.00,000.00,030.2,029.7,000.0,038.3,032.0,014.8,0000.0,0011.69,0004.05,0002.85
2024-06-03 03:02:00,SystemResetWarning,0823.9,4.99,000.00,030.2,029.8,000.0,038.3,032.0,013.9,0000.0,0010.59,0004.04,0002.84
2024-06-03 03:03:00,SystemResetWarning,0823.9,5.00,000.00,030.3,029.8,000.0,038.4,032.1,013.7,0000.0,0010.63,0003.98,0002.82
2024-06-03 03:04:00,SystemResetWarning,0824.0,5.02,000.00,030.3,029.9,000.0,038.4,032.1,013.7,0000.0,0010.51,0003.94,0002.82
2024-06-03 03:05:00,SystemResetWarning,0824.0,5.00,000.00,030.3,029.3,000.0,038.4,031.8,013.7,0000.0,0011.12,0003.92,0002.83
2024-06-03 03:06:00,SystemResetWarning,0823.9,4.99,000.00,029.9,026.8,000.0,038.5,030.7,014.9,0000.0,0012.70,0003.94,0002.83
2024-06-03 03:07:00,SystemResetWarning,0824.0,5.02,000.00,029.6,026.4,000.0,038.5,030.4,015.5,0000.0,0013.52,0003.90,0002.82
2024-06-03 03:08:00,SystemResetWarning,0824.0,5.00,000.00,029.5,026.8,000.0,038.4,030.5,015.7,0000.0,0014.29,0003.92,0002.82
2024-06-03 03:09:00,SystemResetWarning,0824.2,5.00,000.00,029.5,027.2,000.0,038.2,030.7,014.9,0000.0,0015.01,0003.90,0002.83
2024-06-03 03:10:00,SystemResetWarning,0824.2,5.01,000.00,029.5,027.6,000.0,038.1,030.9,014.3,0000.0,0015.24,0003.87,0002.83
2024-06-03 03:11:00,SystemResetWarning,0824.3,5.00,000.00,029.5,027.9,000.0,038.1,031.1,014.2,0000.0,0015.24,0003.83,0002.83
2024-06-03 03:12:00,SystemResetWarning,0824.4,5.00,000.00,029.6,028.2,000.0,038.1,031.2,014.3,0000.0,0014.71,0003.80,0002.83
2024-06-03 03:13:00,SystemResetWarning,0824.4,5.00,000.00,029.6,028.5,000.0,038.0,031.3,015.0,0000.0,0015.25,0003.81,0002.83
2024-06-03 03:14:00,SystemResetWarning,0824.6,5.00,000.00,029.7,028.7,000.0,038.0,031.4,015.5,0000.0,0016.04,0003.85,0002.85
2024-06-03 03:15:00,SystemResetWarning,0824.7,5.00,000.00,029.7,028.8,000.0,038.0,031.4,015.1,0000.0,0016.31,0003.91,0002.84
2024-06-03 03:16:00,SystemResetWarning,0824.7,5.00,000.00,029.8,029.0,000.0,038.0,031.5,014.7,0000.0,0015.54,0003.95,0002.86
2024-06-03 03:17:00,SystemResetWarning,0824.8,5.00,000.00,029.8,029.1,000.0,038.0,031.6,014.5,0000.0,0014.45,0003.93,0002.86
2024-06-03 03:18:00,SystemResetWarning,0824.9,5.00,000.00,029.9,029.2,000.0,038.0,031.7,014.9,0000.0,0014.04,0003.98,0002.86
2024-06-03 03:19:00,SystemResetWarning,0825.1,5.00,000.00,029.9,029.3,000.0,038.1,031.7,014.3,0000.0,0014.48,0003.93,0002.86
2024-06-03 03:20:00,SystemResetWarning,0825.2,5.00,000.00,030.0,029.4,000.0,038.1,031.8,014.7,0000.0,0014.10,0003.93,0002.87
2024-06-03 03:21:00,SystemResetWarning,0825.4,5.00,000.00,030.0,029.4,000.0,038.1,031.8,014.9,0000.0,0014.19,0003.94,0002.87
2024-06-03 03:22:00,SystemResetWarning,0825.5,4.99,000.00,030.1,029.5,000.0,038.2,031.9,014.7,0000.0,0015.06,0003.94,0002.87
2024-06-03 03:23:00,SystemResetWarning,0825.5,5.00,000.00,030.1,029.6,000.0,038.2,031.9,015.2,0000.0,0015.26,0003.96,0002.86
2024-06-03 03:24:00,SystemResetWarning,0825.4,5.00,000.00,030.1,029.6,000.0,038.3,031.9,015.6,0000.0,0016.07,0004.02,0002.87
2024-06-03 03:25:00,SystemResetWarning,0825.5,5.01,000.00,030.1,029.6,000.0,038.3,032.0,015.7,0000.0,0016.85,0004.05,0002.87
2024-06-03 03:26:00,SystemResetWarning,0825.6,5.01,000.00,030.2,029.6,000.0,038.3,032.0,016.0,0000.0,0018.45,0004.08,0002.86
2024-06-03 03:27:00,SystemResetWarning,0825.6,4.99,000.00,030.2,029.6,000.0,038.4,032.0,016.0,0000.0,0018.83,0004.08,0002.84
2024-06-03 03:28:00,SystemResetWarning,0825.6,4.99,000.00,030.2,029.7,000.0,038.4,032.0,016.0,0000.0,0021.15,0004.14,0002.80
2024-06-03 03:29:00,SystemResetWarning,0825.5,4.99,000.00,030.2,029.7,000.0,038.4,032.0,016.1,0000.0,0020.89,0004.14,0002.75
2024-06-03 03:30:00,SystemResetWarning,0825.5,4.99,000.00,030.3,029.7,000.0,038.4,032.1,016.1,0000.0,0020.02,0004.15,0002.74
2024-06-03 03:31:00,SystemResetWarning,0825.6,5.01,000.00,030.3,029.7,000.0,038.4,032.1,016.1,0000.0,0019.54,0004.19,0002.71
2024-06-03 03:32:00,SystemResetWarning,0825.5,5.00,000.00,030.3,029.7,000.0,038.5,032.1,016.0,0000.0,0020.12,0004.19,0002.67
2024-06-03 03:33:00,SystemResetWarning,0825.5,5.00,000.00,030.3,029.8,000.0,038.5,032.1,016.0,0000.0,0020.23,0004.18,0002.64
2024-06-03 03:34:00,SystemResetWarning,0825.5,5.00,000.00,030.4,029.8,000.0,038.5,032.1,015.8,0000.0,0020.13,0004.16,0002.62
2024-06-03 03:35:00,SystemResetWarning,0825.5,5.00,000.00,030.4,029.8,000.0,038.5,032.1,015.9,0000.0,0019.00,0004.07,0002.59
2024-06-03 03:36:00,SystemResetWarning,0825.6,5.00,000.00,030.4,029.8,000.0,038.6,032.2,015.9,0000.0,0018.04,0003.98,0002.53
2024-06-03 03:37:00,SystemResetWarning,0825.5,5.00,000.00,030.4,029.8,000.0,038.6,032.2,016.2,0000.0,0015.70,0003.86,0002.50
2024-06-03 03:38:00,SystemResetWarning,0825.5,5.01,000.00,030.4,029.8,000.0,038.6,032.2,016.4,0000.0,0015.17,0003.79,0002.50
2024-06-03 03:39:00,SystemResetWarning,0825.5,5.00,000.00,030.5,029.8,000.0,038.6,032.2,016.5,0000.0,0012.75,0003.70,0002.51
2024-06-03 03:40:00,SystemResetWarning,0825.4,5.00,000.00,030.5,029.8,000.0,038.6,032.2,016.6,0000.0,0011.79,0003.63,0002.53
2024-06-03 03:41:00,SystemResetWarning,0825.3,4.99,000.00,030.5,029.8,000.0,038.7,032.2,016.6,0000.0,0011.14,0003.61,0002.54
2024-06-03 03:42:00,SystemResetWarning,0825.3,4.99,000.00,030.5,029.8,000.0,038.7,032.2,016.6,0000.0,0010.86,0003.53,0002.53
2024-06-03 03:43:00,SystemResetWarning,0825.4,5.01,000.00,030.5,029.8,000.0,038.7,032.2,016.6,0000.0,0010.35,0003.51,0002.54
2024-06-03 03:44:00,SystemResetWarning,0825.4,5.02,000.00,030.5,029.9,000.0,038.7,032.3,016.6,0000.0,0008.80,0003.49,0002.55
2024-06-03 03:45:00,SystemResetWarning,0825.4,4.99,000.00,030.5,029.9,000.0,038.7,032.3,016.6,0000.0,0008.59,0003.52,0002.56
2024-06-03 03:46:00,SystemResetWarning,0825.3,4.99,000.00,030.6,029.9,000.0,038.8,032.3,016.6,0000.0,0009.18,0003.53,0002.56
2024-06-03 03:47:00,SystemResetWarning,0825.3,4.99,000.00,030.6,029.9,000.0,038.8,032.3,016.4,0000.0,0009.21,0003.52,0002.56
2024-06-03 03:48:00,SystemResetWarning,0825.4,5.01,000.00,030.6,029.9,000.0,038.8,032.3,016.5,0000.0,0009.68,0003.50,0002.57
2024-06-03 03:49:00,SystemResetWarning,0825.4,5.00,000.00,030.6,029.9,000.0,038.8,032.3,016.4,0000.0,0009.58,0003.51,0002.56
2024-06-03 03:50:00,SystemResetWarning,0825.5,5.00,000.00,030.6,029.9,000.0,038.8,032.3,016.3,0000.0,0009.81,0003.49,0002.53
2024-06-03 03:51:00,SystemResetWarning,0825.6,5.00,000.00,030.6,029.9,000.0,038.8,032.3,016.3,0000.0,0010.14,0003.47,0002.51
2024-06-03 03:52:00,SystemResetWarning,0825.5,5.00,000.00,030.6,030.0,000.0,038.8,032.3,016.3,0000.0,0010.16,0003.48,0002.49
2024-06-03 03:53:00,SystemResetWarning,0825.5,5.00,000.00,030.7,030.0,000.0,038.8,032.3,016.2,0000.0,0010.17,0003.47,0002.46
2024-06-03 03:54:00,SystemResetWarning,0825.5,5.00,000.00,030.7,030.0,000.0,038.8,032.3,016.1,0000.0,0010.04,0003.47,0002.44
2024-06-03 03:55:00,SystemResetWarning,0825.4,5.01,000.00,030.7,030.0,000.0,038.9,032.4,016.0,0000.0,0009.92,0003.43,0002.42
2024-06-03 03:56:00,SystemResetWarning,0825.5,5.01,000.00,030.7,030.0,000.0,038.9,032.4,016.0,0000.0,0009.75,0003.37,0002.36
2024-06-03 03:57:00,SystemResetWarning,0825.4,5.00,000.00,030.7,030.0,000.0,038.9,032.4,015.9,0000.0,0009.25,0003.29,0002.32
2024-06-03 03:58:00,SystemResetWarning,0825.4,4.99,000.00,030.7,030.1,000.0,038.9,032.4,016.0,0000.0,0008.53,0003.28,0002.30
2024-06-03 03:59:00,SystemResetWarning,0825.4,5.00,000.00,030.7,030.1,000.0,038.9,032.4,016.0,0000.0,0007.98,0003.28,0002.27
